{"data":{"norad_id":64911,"epoch":"2026-05-24T23:52:03.091872Z","epoch_age_seconds":78732,"freshness":"FRESH","line1":"1 64911U 25157H   26144.99448023  .00022476  00000+0  76869-3 0  9996","line2":"2 64911  53.1594 351.4348 0000528  28.4370 331.6659 15.30199550 47807","mean_motion":15.3019955,"eccentricity":5.28e-5,"inclination_deg":53.1594,"raan_deg":351.4348,"arg_perigee_deg":28.437,"mean_anomaly_deg":331.6659,"bstar":0.00076869,"rev_number":4780,"period_min":94.105373380877,"perigee_km":474.85455597833,"apogee_km":475.57827009875,"semimajor_km":6853.3534130385,"source":"CELESTRAK","updated_at":"2026-05-25T13:38:20.620789Z"}}